Regional Weather Roundup
Issued by NWS

Home | Current Version | Previous Version | Graphics & Text | Print | Product List | Glossary On
Versions: 1 2 3 4 5 6 7 8 9 10 11 12 13 14 15 16 17 18 19 20 21 22 23 24 25 26 27 28 29 30 31 32 33 34 35 36 37 38 39 40 41 42 43 44 45 46 47 48 49 50
000
ASUS43 KMKX 281600
RWRWI

WISCONSIN REGIONAL WEATHER ROUNDUP
NATIONAL WEATHER SERVICE MILWAUKEE/SULLIVAN WI
1100 AM CDT SAT MAY 28 2016

NOTE: "FAIR" INDICATES FEW OR NO CLOUDS BELOW 12,000 FEET WITH NO
SIGNIFICANT WEATHER AND/OR OBSTRUCTIONS TO VISIBILITY.

WIZ001-002-006>008-014>016-023>028-281700-
NORTHWEST WISCONSIN

CITY           SKY/WX    TMP DP  RH WIND       PRES   REMARKS
SUPERIOR ARPT  CLOUDY    49  49  99 E7        29.79R
ASHLAND        CLOUDY    56  52  86 N8        29.79S
HAYWARD        CLOUDY    63  60  90 CALM      29.78S
SIREN          CLOUDY    59  55  87 CALM      29.78S
CUMBERLAND     CLOUDY    61  57  88 NW3       29.78S
RICE LAKE      CLOUDY    64  60  86 CALM      29.79R
CHETEK         CLOUDY    65  62  92 CALM      29.77S
LADYSMITH      CLOUDY    68  64  89 W3        29.78S
EAU CLAIRE     CLOUDY    69  63  81 NW5       29.75R
MENOMONIE      CLOUDY    67  67  99 CALM      29.77R
NEW RICHMOND   CLOUDY    63  62  94 CALM      29.78R
OSCEOLA        CLOUDY    61  61 100 NW3       29.80S
$$

WIZ003>005-009-010-017-018-281700-
NORTH CENTRAL WISCONSIN

CITY           SKY/WX    TMP DP  RH WIND       PRES   REMARKS
MANITOWISH WTR NOT AVBL
ARBOR VITAE    LGT RAIN  65  61  87 S5        29.79R
WOODRUFF       LGT RAIN  65  61  87 S5        29.79R
RHINELANDER    CLOUDY    69  65  86 S6        29.79S
EAGLE RIVER    LGT RAIN  67  66  99 E5        29.79S
LAND O LAKES   RAIN      67  66  95 SE7       29.81S
PHILLIPS       CLOUDY    69  65  89 CALM      29.76S
TOMAHAWK       LGT RAIN  67  65  93 CALM      29.78S
MEDFORD        CLOUDY    69  68  97 S5        29.76S
MERRILL        CLOUDY    70  68  93 S6        29.78S
$$

WIZ029-030-035-036-043>047-281700-
CENTRAL WISCONSIN

CITY           SKY/WX    TMP DP  RH WIND       PRES   REMARKS
WAUSAU         CLOUDY    69  66  90 S10       29.75S FOG
MOSINEE        LGT RAIN  68  68 100 S9G16     29.78S FOG
MARSHFIELD     CLOUDY    69  65  86 S13       29.74S
STEVENS POINT  CLOUDY    67  65  92 S13       29.78S
WAUPACA        CLOUDY    71  70  96 S13       29.79S
WAUTOMA        CLOUDY    71  66  84 S13G22    29.80R
WISC RAPIDS    CLOUDY    70  65  84 SW9G21    29.78R
CAMP DOUGLAS   NOT AVBL
$$

WIZ011>013-019>022-031-037>040-048>050-281700-
NORTHEAST WISCONSIN

CITY           SKY/WX    TMP DP  RH WIND       PRES   REMARKS
ANTIGO         CLOUDY    67  66  98 S12       29.80S
SHAWANO        CLOUDY    73  66  81 S5        29.80R
OCONTO         PTSUNNY   71  71 100 SE9       29.80F
STURGEON BAY   NOT AVBL
GREEN BAY      CLOUDY    73  66  78 S10       29.81R
MANITOWOC      NOT AVBL
APPLETON       CLOUDY    72  64  78 SW17      29.80R
CLINTONVILLE   RAIN      70  66  88 S17       29.79S
OSHKOSH        CLOUDY    74  65  73 S20G30    29.81R
$$

WIZ032>034-041-042-053>061-281700-
SOUTHWEST WISCONSIN

CITY           SKY/WX    TMP DP  RH WIND       PRES   REMARKS
LA CROSSE      LGT RAIN  69  65  86 S9        29.76R
SPARTA         CLOUDY    68  66  94 S7        29.77R
VIROQUA        CLOUDY    68  66  91 SW13      29.80R
BOSCOBEL       CLOUDY    72  63  73 SW12      29.81R
PRAIRIE DU CHI PTSUNNY   70  61  74 S8        29.81R
PLATTEVILLE    CLOUDY    71  67  88 S20       29.84R
$$

WIZ056-057-062-063-064-067-068-281700-
SOUTH CENTRAL WISCONSIN

CITY           SKY/WX    TMP DP  RH WIND       PRES   REMARKS
REEDSBURG      CLOUDY    71  65  83 S14G20    29.79S
BARABOO/DELLS  CLOUDY    70  63  77 SW15G21   29.80S
LONE ROCK      NOT AVBL
MINERAL POINT  CLOUDY    70  66  88 S12       29.84R
MADISON        CLOUDY    73  65  75 SW12G20   29.83R
MIDDLETON      CLOUDY    73  65  76 SW13G23   29.84R
WATERTOWN      CLOUDY    72  67  84 S14       29.85R
MONROE         CLOUDY    72  64  78 S18G24    29.85R
JANESVILLE     MOSUNNY   77  66  69 S20G26    29.78F
$$

WIZ051-052-058>065-066-070>072-281700-
SOUTHEAST WISCONSIN

CITY           SKY/WX    TMP DP  RH WIND       PRES   REMARKS
MILWAUKEE      CLOUDY    75  65  70 S20       29.87R
WAUKESHA       CLOUDY    72  64  78 S14       29.88R
MILWAUKEE/TIMM CLOUDY    73  63  68 S17G24    29.87R
RACINE         PTSUNNY   75  65  70 SW12      29.90R
BURLINGTON     PTSUNNY   74  65  73 S13G28    29.87S
KENOSHA        CLOUDY    76  65  68 S16G24    29.89R
FOND DU LAC    CLOUDY    74  66  76 S21G30    29.82R
SHEBOYGAN      CLOUDY    73  66  78 S12       29.85R
WEST BEND      CLOUDY    73  64  73 S13G21    29.85R
JUNEAU         CLOUDY    73  66  79 S20G26    29.85R
$$

LSZ147-162-281700-
LAKE SUPERIOR

STATION/POSITION TIME  TEMP    WIND        PRES    WAVE
                       AIR SEA DIR/SP/G            HT/PER
                 (UTC) (F)     (DEG/KT/KT) (MB)    (FT/S)
W MID LAKE BUOY  1450   42 38   30/ 12/ 14 1008.6F   2/ 4
DEVILS ISLAND    1500   43     120/  5/  6 1009.6R
SAXON HARBOR     1500   52      50/  6/  7 1008.1
$$

LMZ867-665-643>646-281700-
LAKE MICHIGAN

STATION/POSITION TIME  TEMP    WIND        PRES    WAVE
                       AIR SEA DIR/SP/G            HT/PER
                 (UTC) (F)     (DEG/KT/KT) (MB)    (FT/S)
CHAMBERS ISLAND  1500   66     130/ 10/ 16 1010.2S
N MID LAKE BUOY  1450   52 46  160/  8/ 10 1011.1F   2/ 4
NORTHPORT PIER   1500   63     160/ 11/ 15 1010.8F
SISTER BAY       1535   68     190/ 15/ 19   N/A
ALGOMA LAKESHORE 1517             CALM       N/A
KEWAUNEE LAKESHO 1500   52     180/ 11/ 12 1010.0F
SHEBOYGAN LAKESH 1500   56     170/ 18/ 18 1011.0R
PORT WASHINGTON  1500   60     190/  8/ 11 1011.5
S MID LAKE BUOY  1450   56 50  160/ 12/ 14 1012.4R   2/ 3
KENOSHA   LAKESH 1500   58     170/ 13/ 16 1011.9R
$$

TC  - TEMPERATURE IN CELSIUS
VSB - VISIBILITY IN STATUTE MILES
WCI - WIND CHILL INDEX
HX  - HEAT INDEX





USA.gov is the U.S. government's official web portal to all federal, state and local government web resources and services.